Location: Centerville
(32.8776°N, 96.6203°W)
Time: 13:15:12
(UTC+00:00)

Cosmos 1727 Rocket - Pass Details

Date: 17 June 2021
Orbit: 960 x 997 km, 82.9° (Epoch: 30 July)

Event Time Altitude Azimuth Distance (km) Brightness Sun altitude
Exits shadow 03:24:13 15° 186° (S) 2,419 5.7 -18.8°
Maximum altitude 03:29:40 87° 275° (W) 996 4.0 -19.6°
Drops below altitude 10° 03:35:59 10° 5° (N) 2,745 6.9 -20.5°
Sets 03:38:30 0° 6° (N) 3,691 7.7 -20.8°
